(337) Devosa
ephemeris date magn radius delta ra dec elong phase
Today13 Jul 202614.02.270 AU2.894 AU10h23m+10°23'43.7°18.0°
Opposition1 Jun 202712.62.673 AU1.674 AU16h28m-34°07'167.8°4.6°
(337) Devosa - 2026-07-13
astro.vanbuitenen.nl


 
-1 year
-1 month
-1 day
Now
+1 day
+1 month
+1 year

The interactive orbit chart above shows the body's path through the solar system and its position at the given date. Green and blue lines are shown perpendicular to the ecliptic plane: Green if the path is above the ecliptic plane, blue if it is below. (Left-click and drag to rotate the view; Right-click and drag to move the view; Use scroll wheel to zoom in our out.)

The orbital elements of Devosa are:

            e (Eccentricity)                : 0.1371743
            a (Semimajor axis)              : 2.3831345
            i (Inclination)                 : 7.86118
            Ω (Longitude of ascending node) : 355.29459
            ω (Argument of perihelion)      : 99.35247
            M (Mean anomaly)                : 53.26053
            Epoch                           : 2026 Jun 09

            L (Longitude of perihelion)     : 274.73420
            B (Latitude of perihelion)      : 7.75604
            P (Orbital period in years)     : 3.68            
        

The light curve chart below shows the estimated development of the minor planet's magnitude.


The all-sky chart below shows the path of the minor planet over the same period as the light curve. The current position is marked yellow.





The following chart shows the path of the minor planet in the next few days. The field of view is optimized for (~10x50) binoculars and finderscopes.




Ephemerides:
Date       Time       RA (2000)    DEC (2000)    delta   radius  elong  phase   PA    magn
2026-07-13 00:00 UT   10 23 59.4   +10 23 03     2.894    2.270   43.7   18.0   111   14.0 
2026-07-13 10:05 UT   10 24 42.9   +10 17 60     2.898    2.271   43.5   17.9   111   14.0 
2026-07-14 00:00 UT   10 25 43.0   +10 11 01     2.903    2.271   43.2   17.8   111   14.0 
2026-07-15 00:00 UT   10 27 26.6   +09 58 57     2.912    2.273   42.7   17.7   111   14.0 
2026-07-16 00:00 UT   10 29 10.2   +09 46 52     2.922    2.274   42.2   17.5   111   14.0 
2026-07-17 00:00 UT   10 30 53.8   +09 34 44     2.931    2.276   41.8   17.3   111   14.0 
2026-07-18 00:00 UT   10 32 37.3   +09 22 35     2.940    2.277   41.3   17.1   111   14.0 
2026-07-19 00:00 UT   10 34 20.9   +09 10 24     2.950    2.279   40.8   16.9   112   14.0 
2026-07-20 00:00 UT   10 36 04.4   +08 58 12     2.959    2.281   40.3   16.8   112   14.0 
2026-07-21 00:00 UT   10 37 48.0   +08 45 58     2.968    2.282   39.8   16.6   112   14.0 
2026-07-22 00:00 UT   10 39 31.5   +08 33 42     2.977    2.284   39.3   16.4   112   14.0 
2026-07-23 00:00 UT   10 41 15.0   +08 21 25     2.985    2.285   38.9   16.2   112   14.0 
2026-07-24 00:00 UT   10 42 58.5   +08 09 06     2.994    2.287   38.4   16.0   112   14.0 
2026-07-25 00:00 UT   10 44 41.9   +07 56 46     3.003    2.288   37.9   15.8   112   14.0 
2026-07-26 00:00 UT   10 46 25.4   +07 44 24     3.012    2.290   37.4   15.6   112   14.0 
2026-07-27 00:00 UT   10 48 08.8   +07 32 01     3.020    2.291   36.9   15.4   112   14.0 
2026-07-28 00:00 UT   10 49 52.2   +07 19 36     3.029    2.293   36.4   15.3   112   14.0 
2026-07-29 00:00 UT   10 51 35.6   +07 07 11     3.037    2.294   36.0   15.1   113   14.0 
2026-07-30 00:00 UT   10 53 19.0   +06 54 44     3.045    2.296   35.5   14.9   113   14.0 


    Terminology:
            
    delta:  distance between minor planet and earth in AU
    radius: distance between minor planet and sun in AU
    magn:   magnitude (brightness) estimate    
    ra:     right ascension in hours (24h = 360deg)
    dec:    declination in degrees
    elong:  elongation in degrees (angle sun-earth-minor planet)    
    phase:  phase angle in degrees (angle sun-minor planet-earth)        
    AU:     Astronomical Unit (mean distance between earth and sun: 149597870.7 km
    

Orbital elements provided by the MPC (Minor Planet Center).
Calculations by a modified version of AAPlus, a C# implementation of the AA+ project by PJ Naughter from the algorithms presented in the book "Astronomical Algorithms" by Jean Meeus.
NGC2000 dso catalog and star labels from VizieR as provided by the Strasbourg astronomical Data Center.
Tycho2 catalog from the ESO archive.